Weather History for Bloomington, IN

Change the Weather History Date:

Sunday, February 3, 2013

  Actual Average Record
Temperature  
Mean Temperature 19 °F 31 °F  
Max Temperature 27 °F 40 °F 57 °F (2003)
Min Temperature 11 °F 21 °F 6 °F (2007)
Degree Days  
Heating Degree Days 46 34  
Month to date heating degree days 143 104  
Since 1 July heating degree days 3187 3279  
Cooling Degree Days 0 0  
Month to date cooling degree days 0 0  
Year to date cooling degree days 0 0  
Moisture  
Dew Point 15 °F    
Average Humidity 80    
Maximum Humidity 92    
Minimum Humidity 67    
Precipitation  
Precipitation T in 0.10 in 0.37 in (2003)
Month to date precipitation 0.08 0.30  
Year to date precipitation 5.54 3.61  
Sea Level Pressure  
Sea Level Pressure 30.05 in    
Wind  
Wind Speed 4 mph (WNW)    
Max Wind Speed 15 mph    
Max Gust Speed 21 mph    
Visibility 5 miles    
Events Snow    
T = Trace of Precipitation, MM = Missing Value Source: NWS Daily Summary

Daily Weather History Graph

Daily Weather History Graph

Search for Another Location

Airport:

Trip Planner

Search our weather history database for the weather conditions in past years. The results will help you decide how hot, cold, wet, or windy it might be!

Date:

Astronomy

Feb. 03, 2013 Rise Set
Actual Time 7:51 AM EST 6:10 PM EST
Civil Twilight 7:23 AM EST 6:38 PM EST
Nautical Twilight 6:51 AM EST 7:10 PM EST
Astronomical Twilight 6:19 AM EST 7:41 PM EST
Moon 1:17 AM EST (2/3) 11:47 AM EST (2/3)
Length of Visible Light 11h 15m
Length of Day
10h 19m
Waning Gibbous, 49% of the Moon is Illuminated
Feb 3
Waning Gibbous
Feb 10
New
Feb 17
First Quarter
Feb 25
Full
Mar 4
Last Quarter

Hourly Weather History & Observations

Time (EST) Temp. Windchill Dew Point Humidity Pressure Visibility Wind Dir Wind Speed Gust Speed Precip Events Conditions
12:34 AM 19.4 °F 12.8 °F 10.4 °F 68% 30.05 in 9.0 mi NW 4.6 mph - N/A   Scattered Clouds
12:53 AM 19.0 °F 12.3 °F 10.0 °F 68% 30.07 in 10.0 mi NW 4.6 mph - N/A   Mostly Cloudy
1:53 AM 17.1 °F - 9.0 °F 71% 30.04 in 10.0 mi Calm Calm - N/A   Overcast
2:53 AM 16.0 °F - 8.1 °F 71% 30.03 in 10.0 mi Calm Calm - N/A   Clear
3:53 AM 14.0 °F - 8.1 °F 77% 30.01 in 8.0 mi Calm Calm - N/A   Overcast
4:53 AM 17.1 °F - 10.9 °F 77% 29.99 in 6.0 mi Calm Calm - 0.00 in   Haze
5:20 AM 17.6 °F 12.3 °F 10.4 °F 73% 29.97 in 1.5 mi West 3.5 mph - 0.00 in Snow Light Snow
5:34 AM 17.6 °F 12.3 °F 10.4 °F 73% 29.97 in 3.0 mi WNW 3.5 mph - 0.00 in Snow Light Snow
5:53 AM 17.1 °F 11.7 °F 10.9 °F 77% 30.00 in 5.0 mi West 3.5 mph - 0.00 in Snow Light Snow
6:07 AM 17.6 °F 12.3 °F 10.4 °F 73% 29.97 in 8.0 mi WSW 3.5 mph - 0.00 in   Overcast
6:53 AM 17.1 °F - 10.9 °F 77% 30.01 in 9.0 mi Calm Calm - 0.00 in   Overcast
7:53 AM 18.0 °F 12.7 °F 12.9 °F 81% 30.01 in 7.0 mi WNW 3.5 mph - 0.00 in   Overcast
8:10 AM 17.6 °F 12.3 °F 12.2 °F 79% 29.98 in 4.0 mi WNW 3.5 mph - N/A   Haze
8:21 AM 17.6 °F 12.3 °F 14.0 °F 86% 29.98 in 2.0 mi WNW 3.5 mph - N/A   Overcast
8:29 AM 17.6 °F - 15.8 °F 93% 29.98 in 1.5 mi Calm Calm - N/A   Overcast
8:53 AM 18.0 °F - 15.1 °F 88% 30.02 in 1.8 mi Calm Calm - N/A   Overcast
9:19 AM 17.6 °F - 15.8 °F 93% 29.98 in 2.0 mi Calm Calm - N/A   Overcast
9:48 AM 19.4 °F - 15.8 °F 86% 29.98 in 1.2 mi Calm Calm - N/A   Overcast
9:53 AM 19.0 °F - 16.0 °F 88% 30.02 in 1.2 mi Calm Calm - N/A   Overcast
10:53 AM 19.9 °F 14.9 °F 17.1 °F 89% 30.02 in 1.2 mi West 3.5 mph - N/A   Overcast
11:53 AM 21.0 °F 10.6 °F 19.0 °F 92% 30.05 in 1.5 mi West 9.2 mph - N/A   Overcast
12:22 PM 21.2 °F 10.1 °F 19.4 °F 93% 30.02 in 2.0 mi West 10.4 mph - N/A   Overcast
12:53 PM 23.0 °F 11.7 °F 19.0 °F 85% 30.05 in 2.5 mi WNW 11.5 mph - 0.00 in Snow Light Snow
1:37 PM 24.8 °F 15.3 °F 19.4 °F 80% 30.02 in 3.0 mi West 9.2 mph 17.3 mph 0.00 in Snow Light Snow
1:53 PM 24.1 °F 13.1 °F 19.0 °F 81% 30.06 in 3.0 mi WNW 11.5 mph - 0.00 in   Haze
2:07 PM 24.8 °F 14.6 °F 19.4 °F 80% 30.03 in 3.0 mi WNW 10.4 mph - 0.00 in Snow Light Snow
2:16 PM 24.8 °F 16.1 °F 19.4 °F 80% 30.03 in 2.5 mi WNW 8.1 mph 16.1 mph 0.00 in Snow Light Snow
2:33 PM 24.8 °F 14.6 °F 19.4 °F 80% 30.04 in 1.5 mi West 10.4 mph - 0.00 in Snow Light Snow
2:53 PM 26.1 °F 17.6 °F 19.9 °F 78% 30.07 in 1.2 mi WNW 8.1 mph 18.4 mph 0.00 in Snow Light Snow
3:21 PM 26.6 °F 16.2 °F 21.2 °F 80% 30.04 in 2.5 mi WNW 11.5 mph 17.3 mph 0.00 in Snow Light Snow
3:28 PM 26.6 °F 16.2 °F 19.4 °F 74% 30.04 in 4.0 mi WNW 11.5 mph 18.4 mph 0.00 in Snow Light Snow
3:53 PM 27.0 °F 18.0 °F 17.1 °F 66% 30.09 in 4.0 mi NW 9.2 mph 20.7 mph 0.00 in Snow Light Snow
4:03 PM 26.6 °F 16.8 °F 17.6 °F 69% 30.06 in 1.8 mi NW 10.4 mph 19.6 mph 0.00 in Snow Light Snow
4:19 PM 26.6 °F 19.1 °F 19.4 °F 74% 30.07 in 0.8 mi NW 6.9 mph 17.3 mph 0.00 in Snow Light Snow
4:32 PM 24.8 °F 14.6 °F 19.4 °F 80% 30.07 in 1.2 mi WNW 10.4 mph 19.6 mph 0.00 in Snow Light Snow
4:53 PM 25.0 °F 16.3 °F 19.9 °F 81% 30.11 in 1.5 mi WNW 8.1 mph - 0.00 in Snow Light Snow
5:03 PM 24.8 °F 16.1 °F 19.4 °F 80% 30.08 in 2.5 mi WNW 8.1 mph - 0.00 in Snow Light Snow
5:11 PM 24.8 °F 15.3 °F 19.4 °F 80% 30.08 in 4.0 mi West 9.2 mph - 0.00 in   Haze
5:30 PM 24.8 °F 17.9 °F 19.4 °F 80% 30.08 in 3.0 mi NW 5.8 mph - 0.00 in Snow Light Snow
5:53 PM 25.0 °F 15.5 °F 17.1 °F 72% 30.13 in 10.0 mi WNW 9.2 mph - 0.00 in   Overcast
6:03 PM 24.8 °F 17.9 °F 17.6 °F 74% 30.10 in 8.0 mi WNW 5.8 mph - N/A   Overcast
6:53 PM 21.9 °F - 12.9 °F 68% 30.14 in 10.0 mi Calm Calm - N/A   Partly Cloudy
7:53 PM 15.1 °F - 10.0 °F 80% 30.14 in 10.0 mi Calm Calm - N/A   Clear
8:53 PM 14.0 °F - 10.0 °F 84% 30.14 in 10.0 mi Calm Calm - N/A   Mostly Cloudy
9:53 PM 16.0 °F - 12.0 °F 84% 30.15 in 10.0 mi Calm Calm - N/A   Overcast
10:53 PM 21.0 °F - 15.1 °F 78% 30.12 in 10.0 mi Calm Calm - N/A   Overcast
11:53 PM 19.9 °F - 12.9 °F 74% 30.13 in 10.0 mi Calm Calm - N/A   Partly Cloudy